Wreay, United Kingdom

10:13 AM BST on June 26, 2019 (GMT +0100)
Wreay

Weather History for 03222 - December, 2008

Change the Weather History Date:

Friday, December 19, 2008

  Actual Average Record
Temperature  
Mean Temperature 42 °F -  
Max Temperature 50 °F 42 °F - ()
Min Temperature 35 °F 37 °F - ()
Degree Days  
Heating Degree Days 22    
Moisture  
Dew Point 40 °F    
Average Humidity 88    
Maximum Humidity 94    
Minimum Humidity 81    
Precipitation  
Precipitation 0.00 in - - ()
Sea Level Pressure  
Sea Level Pressure 29.90 in    
Wind  
Wind Speed 12 mph ()    
Max Wind Speed 34 mph    
Max Gust Speed 51 mph    
Visibility 5.9 miles    
Events Rain    
T = Trace of Precipitation, MM = Missing Value Source: Averaged Metar Reports

Daily Weather History Graph

Daily Weather History Graph

Search for Another Location

Airport or City:

Astronomy

Dec. 19, 2008 Rise Set
Actual Time 8:33 AM GMT 3:44 PM GMT
Civil Twilight 7:48 AM GMT 4:30 PM GMT
Nautical Twilight 7:00 AM GMT 5:17 PM GMT
Astronomical Twilight 6:16 AM GMT 6:02 PM GMT
Moon No Moon Rise 11:49 AM GMT (12/19)
Length of Visible Light 8h 42m
Length of Day
7h 11m
Waning Gibbous, 49% of the Moon is Illuminated
Dec 19
Waning Gibbous
Dec 27
New
Jan 4
First Quarter
Jan 11
Full
Jan 18
Last Quarter

Hourly Weather History & Observations

Time (GMT) Temp. Windchill Dew Point Humidity Pressure Visibility Wind Dir Wind Speed Gust Speed Precip Events Conditions
7:20 AM 37.4 °F 34.9 °F 33.8 °F 87% 30.09 in 6.2 mi SW 3.5 mph - N/A   Partly Cloudy
7:50 AM 35.6 °F 31.7 °F 33.8 °F 93% 30.09 in 6.2 mi SSE 4.6 mph - N/A   Partly Cloudy
8:20 AM 35.6 °F 30.7 °F 33.8 °F 93% 30.09 in 6.2 mi SSW 5.8 mph - N/A   Partly Cloudy
8:50 AM 37.4 °F 32.1 °F 33.8 °F 87% 30.06 in 6.2 mi SSW 6.9 mph - N/A   Partly Cloudy
9:20 AM 39.2 °F 33.6 °F 35.6 °F 87% 30.06 in 6.2 mi SSW 8.1 mph - N/A   Partly Cloudy
9:50 AM 39.2 °F 33.0 °F 35.6 °F 87% 30.06 in 6.2 mi South 9.2 mph - N/A   Partly Cloudy
10:20 AM 41.0 °F 34.3 °F 35.6 °F 81% 30.04 in 6.2 mi SSW 11.5 mph - N/A   Partly Cloudy
10:50 AM 41.0 °F 33.1 °F 35.6 °F 81% 30.04 in 6.2 mi SSW 15.0 mph - N/A   Partly Cloudy
11:20 AM 41.0 °F 33.9 °F 35.6 °F 81% 30.01 in 6.2 mi South 12.7 mph - N/A   Partly Cloudy
11:50 AM 42.8 °F 35.8 °F 37.4 °F 81% 29.98 in 6.2 mi SSW 13.8 mph - N/A   Partly Cloudy
12:20 PM 42.8 °F 35.1 °F 37.4 °F 81% 29.95 in 5.6 mi SW 16.1 mph - N/A Rain Rain
12:50 PM 41.0 °F 31.9 °F 39.2 °F 93% 29.92 in 5.6 mi SW 19.6 mph - N/A Rain Rain
1:20 PM 41.0 °F 33.1 °F 37.4 °F 87% 29.89 in 5.6 mi SSW 15.0 mph - N/A Rain Rain
1:50 PM 41.0 °F 31.6 °F 39.2 °F 93% 29.83 in 5.6 mi South 20.7 mph 32.2 mph N/A Rain Rain
2:20 PM 42.8 °F 34.5 °F 39.2 °F 87% 29.83 in 6.2 mi SSW 18.4 mph - N/A Rain Rain
2:50 PM 44.6 °F 36.9 °F 41.0 °F 87% 29.80 in 6.2 mi SSW 18.4 mph - N/A Rain Rain
3:20 PM 46.4 °F 38.1 °F 44.6 °F 93% 29.77 in 6.2 mi SW 24.2 mph 40.3 mph N/A Rain Rain
3:50 PM 48.2 °F - 46.4 °F 93% 29.74 in 5.6 mi SW 26.5 mph - N/A Rain Rain
4:20 PM 48.2 °F - 46.4 °F 93% 29.71 in 5.6 mi SW 29.9 mph 41.4 mph N/A Rain Rain
4:50 PM 50.0 °F - 46.4 °F 87% 29.68 in 5.6 mi SW 34.5 mph 50.6 mph N/A Rain Rain
5:20 PM 50.0 °F - 48.2 °F 94% 29.68 in 5.6 mi SW 34.5 mph 49.5 mph N/A Rain Rain
5:50 PM 50.0 °F - 48.2 °F 94% 29.68 in 5.6 mi SW 31.1 mph 44.9 mph N/A Rain Rain
6:20 PM 50.0 °F - 48.2 °F 94% 29.68 in 5.6 mi SW 33.4 mph 46.0 mph N/A Rain Rain